Wind_Speed
3 6 7 6 6 4 5 6 7 8 5 4 6 6 5 10 3 7 6 7 7 7 10 9 7 6 9 9 9 11 12 14 15 16 16 16 16 16 13 11 11 12 11
2 5 6 8 7 4 5 5 4 4 5 5 5 7 5 7 8 7 6 6 6 5 8 8 8 6 5 6 9 9 10 11 11 14 15 16 16 17 15 13 12 12 12
1 2 3 4 5 5 5 5 3 4 6 7 6 6 5 6 4 5 6 2 6 6 6 8 8 7 6 7 8 8 9 10 10 12 12 15 16 16 15 15 14 14 14
2 4 5 5 6 7 7 7 6 6 7 7 6 6 5 3 3 4 10 4 4 7 8 8 8 9 8 8 7 8 8 9 10 11 11 13 14 15 14 14 15 15 15
1 3 4 5 7 9 10 11 11 10 10 10 11 9 8 7 4 3 4 7 7 7 8 9 9 9 9 9 9 9 8 8 9 10 11 11 11 13 13 13 14 15 15
3 2 2 6 8 8 8 7 8 8 9 10 11 10 9 8 6 5 5 3 16 6 8 9 9 10 11 10 12 11 10 7 7 8 9 10 9 10 11 10 11 12 13
3 2 3 4 6 6 6 6 6 8 7 7 8 9 9 7 7 7 6 5 5 8 5 8 9 11 12 12 14 13 11 9 7 7 7 9 7 8 8 8 8 8 9
3 2 1 1 2 5 5 6 5 5 5 5 6 9 8 7 6 6 7 7 6 6 6 9 8 10 12 13 11 14 14 11 9 7 7 7 6 5 6 6 5 4 4
3 1 1 3 3 5 6 6 4 4 4 4 4 6 8 9 8 8 9 10 9 7 8 9 12 12 12 16 15 18 16 14 10 9 8 6 5 5 6 6 5 2 0
3 1 2 5 3 5 7 7 7 8 8 7 6 6 8 9 9 10 10 14 14 12 9 9 9 11 11 14 19 19 19 16 13 10 10 8 6 6 6 5 5 4 3
4 3 3 3 2 5 7 9 10 10 12 11 11 10 10 11 11 10 10 10 12 13 11 10 10 12 14 16 16 13 20 17 15 13 11 10 8 9 8 3 4 3 3
5 5 4 4 4 6 8 9 10 11 12 13 12 13 13 14 13 10 10 11 10 12 13 12 10 10 13 14 7 10 14 22 19 16 14 9 9 10 9 9 8 4 3
4 4 4 4 3 3 6 6 8 11 12 12 13 14 16 16 16 13 11 10 10 10 12 13 13 13 11 13 13 13 15 17 20 19 17 14 12 11 11 11 12 9 5
3 1 3 4 6 6 8 5 8 8 10 11 13 17 19 18 20 17 13 11 11 11 10 12 11 12 12 14 18 20 17 17 21 23 20 16 14 13 12 13 16 12 6
5 4 0 2 2 5 8 9 9 9 10 10 13 16 19 17 16 21 18 13 12 12 14 15 14 14 15 15 18 20 15 18 12 24 20 16 15 15 14 15 13 3 7
9 8 8 3 3 3 4 8 9 9 9 12 13 14 17 16 16 14 21 10 16 16 17 18 19 19 21 21 20 21 19 16 21 16 19 15 15 15 13 13 15 11 11
14 15 11 10 6 6 3 6 11 13 11 11 13 16 16 17 15 15 15 14 19 18 21 23 21 22 22 20 18 24 22 25 17 19 18 15 16 15 15 20 19 18 16
16 13 13 12 11 8 6 9 11 13 13 14 16 18 20 20 20 18 17 18 21 22 22 24 23 23 21 20 18 23 24 26 21 18 19 18 19 19 20 21 21 16 13
18 14 10 11 14 14 9 9 10 11 13 16 19 21 22 23 23 23 22 22 22 24 25 27 28 26 26 24 19 25 26 26 24 25 22 21 23 23 22 20 19 18 14
19 13 9 12 19 16 13 12 12 13 15 17 21 22 23 25 26 26 26 26 25 24 26 28 28 28 27 27 25 23 26 31 29 26 25 20 22 28 21 19 21 22 16
22 18 16 20 23 17 13 14 14 15 18 19 20 22 27 29 28 28 31 30 30 27 29 31 28 28 28 29 27 24 23 24 29 30 24 21 22 23 23 19 19 21 19
23 22 22 16 9 11 12 14 16 16 19 18 19 22 21 20 21 21 19 20 22 23 26 29 32 31 30 29 28 26 23 21 19 23 24 24 27 23 26 20 18 19 19
18 18 12 7 8 4 13 17 17 18 19 19 21 22 20 19 21 25 21 19 21 21 24 27 27 30 33 31 29 25 22 20 22 22 24 29 28 25 25 24 21 17 19
11 13 9 6 4 8 13 16 16 15 16 19 22 21 19 15 16 17 17 19 20 22 22 25 28 29 27 31 28 24 23 22 20 21 20 25 28 27 25 27 28 25 23
7 8 1 8 9 9 13 16 15 11 14 18 20 18 17 16 15 15 17 18 18 17 17 23 26 27 23 31 27 26 25 21 20 21 18 24 24 29 30 29 29 28 24
4 7 5 7 11 13 14 13 8 9 14 18 21 18 16 15 15 15 15 16 17 16 16 19 24 23 22 25 25 25 25 22 21 20 15 20 27 24 26 30 29 26 27
Wind_Direction
190 186 184 206 207 227 264 255 261 258 237 215 223 193 188 197 188 152 149 150 156 164 156 150 133 125 136 123 114 113 109 100 94 87 78 73 72 69 68 75 75 75 79
230 177 194 203 220 237 252 253 238 231 209 163 149 172 151 146 148 122 144 153 155 177 138 159 152 140 127 149 123 121 118 111 103 95 89 78 75 70 67 72 76 74 79
306 247 228 222 221 223 213 238 214 150 153 162 172 164 165 171 128 123 95 167 159 168 173 167 163 157 152 152 146 130 124 122 114 104 99 92 81 78 73 74 79 78 74
78 230 215 206 205 205 223 230 206 188 192 194 207 206 215 227 252 237 204 163 206 169 173 169 176 173 167 170 156 140 135 129 124 114 108 103 92 85 80 79 79 77 77
129 216 208 209 209 210 221 224 226 225 224 228 236 236 224 229 221 159 220 233 172 171 165 176 179 184 181 180 170 160 149 137 127 124 119 115 105 99 92 88 85 80 75
55 114 212 216 215 226 226 213 207 220 223 230 237 235 228 222 226 206 198 134 189 177 162 181 188 185 191 194 180 176 169 164 148 135 131 128 127 112 111 101 92 84 79
46 99 154 234 221 229 222 209 206 209 208 211 220 224 225 212 208 210 209 179 158 181 159 179 187 189 196 204 193 182 182 185 182 155 151 141 148 140 132 125 104 85 73
38 41 127 161 232 233 240 231 209 210 202 199 209 212 215 222 218 214 216 213 177 174 179 184 183 198 201 206 213 190 190 193 198 187 174 162 167 180 168 159 139 102 64
34 321 274 214 216 248 246 239 236 245 230 225 221 213 214 219 222 215 208 216 209 196 169 187 212 185 201 202 224 202 197 192 206 202 193 183 181 203 209 200 191 184 325
19 327 214 245 202 246 260 250 240 239 243 250 253 247 229 225 225 227 216 206 212 210 200 194 209 216 223 221 226 210 197 194 195 206 199 198 204 226 233 218 216 219 253
40 344 312 254 219 256 248 252 250 243 248 252 252 252 248 239 237 236 236 223 212 215 217 215 218 222 233 225 221 219 200 202 198 201 218 196 216 238 252 231 237 217 229
49 9 347 275 244 247 248 250 256 252 248 252 254 255 253 255 256 251 226 220 216 215 223 223 223 235 251 253 221 238 235 204 203 206 210 221 222 234 244 247 252 225 198
70 28 14 356 2 292 262 254 256 255 256 257 263 263 259 252 253 252 244 223 215 221 227 232 233 238 239 250 241 248 246 243 210 210 211 218 225 229 249 248 254 247 197
124 54 47 4 13 358 330 289 263 264 261 269 267 265 258 257 253 251 241 244 228 221 232 244 238 239 240 243 257 247 235 238 233 219 216 220 226 230 239 252 261 278 196
322 274 286 17 15 346 338 324 304 293 282 278 273 271 274 278 276 235 229 237 247 243 242 239 246 241 246 252 262 245 248 251 249 233 208 223 229 238 247 251 257 252 250
300 285 268 258 286 318 325 312 305 299 289 290 291 286 285 288 290 263 222 221 252 250 249 247 248 248 258 269 264 236 243 233 250 235 216 227 237 244 248 250 258 235 246
332 282 268 263 259 275 299 311 313 302 300 293 297 301 303 301 293 284 269 264 253 256 254 251 254 256 261 261 254 231 239 244 257 223 225 230 241 246 244 248 252 233 235
347 301 253 268 268 264 279 311 312 304 298 299 301 300 301 299 299 294 282 271 271 261 261 262 256 252 250 255 251 229 232 236 240 238 230 230 243 248 247 246 259 253 259
349 339 260 268 274 277 274 302 316 310 300 296 297 300 298 298 293 283 281 280 276 270 263 260 261 259 252 252 253 238 234 235 236 235 236 246 247 245 246 250 251 262 268
347 329 304 286 261 267 274 286 305 310 305 299 306 306 298 294 288 285 278 275 273 270 265 260 257 256 258 249 249 247 248 241 234 233 238 258 261 236 238 249 254 257 256
352 335 298 304 302 245 266 283 298 303 310 307 306 306 304 297 293 284 273 272 271 267 261 261 256 253 251 250 249 252 257 258 238 232 234 247 247 257 228 241 266 253 239
349 334 324 300 234 215 256 277 282 297 306 308 309 314 306 306 310 308 293 282 277 270 259 257 254 249 247 248 244 245 249 249 248 244 234 246 251 260 226 239 256 226 236
3 352 2 134 152 229 254 277 291 300 303 305 311 314 312 303 305 303 291 285 278 271 264 256 248 246 240 239 240 240 244 246 248 249 248 245 248 246 238 237 252 257 253
12 350 15 133 218 253 271 280 292 301 301 304 311 316 321 318 325 321 307 296 288 280 269 252 249 250 245 235 236 236 238 242 254 254 258 240 232 241 231 239 249 258 266
347 351 147 230 268 282 285 293 299 293 297 310 317 317 326 322 324 320 312 308 301 289 277 250 248 257 251 234 231 231 231 241 248 255 262 234 230 244 240 247 249 259 263
330 313 302 292 278 277 283 291 285 299 308 312 319 320 319 332 324 323 319 314 304 293 286 262 248 255 256 240 226 231 229 237 243 249 250 234 238 239 244 247 250 259 259
Height
5910 5909 5908 5910 5909 5909 5911 5911 5913 5913 5914 5914 5914 5913 5914 5913 5916 5916 5918 5917 5918 5919 5920 5921 5922 5923 5924 5925 5925 5924 5924 5924 5924 5924 5923 5923 5922 5922 5922 5921 5921 5920 5920
5909 5908 5908 5908 5909 5909 5910 5911 5911 5911 5913 5913 5914 5915 5914 5914 5916 5915 5917 5918 5918 5918 5917 5921 5923 5923 5924 5925 5926 5927 5926 5926 5926 5925 5926 5925 5924 5923 5924 5924 5923 5923 5922
5910 5909 5909 5910 5909 5909 5909 5910 5911 5911 5912 5913 5915 5914 5915 5916 5915 5916 5916 5918 5917 5917 5918 5921 5922 5924 5924 5926 5927 5928 5928 5927 5927 5927 5927 5927 5926 5926 5927 5926 5926 5925 5924
5908 5908 5908 5909 5909 5910 5911 5912 5912 5913 5913 5913 5915 5915 5915 5915 5915 5914 5916 5917 5918 5918 5919 5920 5922 5924 5924 5926 5928 5928 5929 5929 5928 5928 5928 5928 5928 5928 5928 5929 5928 5927 5927
5907 5908 5909 5910 5910 5911 5912 5913 5913 5913 5913 5913 5914 5914 5914 5915 5914 5914 5914 5916 5917 5918 5918 5919 5922 5923 5924 5926 5927 5928 5929 5930 5930 5929 5929 5930 5930 5930 5930 5930 5930 5929 5929
5909 5908 5909 5909 5909 5910 5912 5912 5912 5913 5912 5912 5912 5912 5913 5913 5913 5914 5913 5915 5915 5917 5918 5918 5920 5922 5923 5925 5926 5928 5929 5930 5931 5930 5930 5930 5931 5931 5931 5931 5931 5931 5931
5909 5907 5907 5908 5908 5910 5910 5910 5909 5910 5910 5910 5910 5910 5911 5911 5912 5912 5912 5914 5915 5917 5918 5918 5919 5920 5922 5923 5924 5926 5928 5930 5930 5931 5931 5931 5932 5932 5931 5932 5932 5932 5931
5907 5905 5904 5905 5906 5907 5909 5910 5909 5910 5910 5909 5909 5909 5908 5909 5910 5911 5911 5913 5913 5915 5917 5918 5918 5918 5920 5921 5922 5924 5926 5928 5929 5930 5931 5931 5932 5932 5931 5931 5931 5931 5932
5906 5904 5904 5904 5904 5906 5908 5908 5908 5909 5909 5909 5909 5909 5909 5908 5908 5908 5909 5911 5912 5914 5915 5916 5917 5917 5917 5919 5920 5922 5924 5926 5928 5929 5930 5931 5931 5932 5931 5931 5931 5931 5931
5905 5905 5904 5904 5903 5905 5906 5907 5907 5907 5908 5908 5909 5909 5909 5908 5907 5907 5907 5909 5910 5911 5913 5914 5914 5914 5915 5916 5916 5918 5921 5924 5926 5928 5929 5930 5930 5931 5931 5930 5930 5929 5930
5903 5904 5903 5903 5901 5903 5904 5905 5905 5905 5906 5907 5908 5908 5908 5907 5906 5905 5906 5908 5908 5910 5911 5912 5913 5913 5910 5914 5915 5918 5918 5921 5923 5925 5926 5927 5929 5930 5930 5929 5929 5929 5929
5901 5901 5901 5900 5900 5901 5901 5902 5902 5903 5903 5904 5906 5906 5906 5906 5905 5904 5904 5905 5906 5908 5909 5910 5911 5911 5911 5910 5913 5916 5917 5917 5920 5922 5923 5925 5927 5928 5929 5928 5928 5928 5928
5899 5899 5899 5899 5898 5899 5899 5899 5899 5900 5900 5900 5902 5904 5903 5903 5902 5902 5902 5902 5904 5905 5906 5908 5909 5909 5910 5909 5910 5913 5915 5915 5917 5919 5921 5922 5924 5926 5927 5927 5926 5925 5926
5898 5898 5898 5898 5897 5897 5899 5896 5896 5896 5896 5897 5899 5900 5899 5900 5900 5901 5900 5900 5900 5902 5905 5906 5906 5907 5908 5909 5909 5910 5913 5913 5914 5916 5918 5919 5921 5923 5924 5925 5924 5922 5923
5900 5899 5896 5896 5895 5896 5896 5897 5896 5895 5894 5895 5896 5896 5896 5896 5897 5897 5898 5898 5899 5899 5901 5904 5904 5905 5906 5907 5907 5907 5909 5910 5910 5911 5914 5916 5918 5920 5921 5922 5921 5921 5923
5900 5899 5898 5895 5895 5895 5895 5897 5896 5895 5894 5893 5892 5893 5892 5894 5894 5892 5890 5891 5894 5895 5898 5900 5901 5902 5902 5902 5902 5903 5906 5907 5908 5910 5911 5913 5915 5917 5918 5919 5917 5919 5920
5899 5898 5897 5896 5893 5894 5894 5895 5895 5895 5894 5892 5891 5890 5891 5891 5892 5890 5889 5889 5891 5891 5892 5895 5897 5897 5897 5897 5896 5899 5902 5903 5905 5906 5908 5910 5911 5913 5914 5914 5914 5915 5914
5897 5894 5894 5895 5894 5892 5893 5893 5893 5893 5893 5891 5890 5890 5889 5888 5887 5887 5887 5887 5887 5887 5887 5890 5891 5893 5893 5893 5893 5895 5898 5900 5902 5904 5905 5906 5908 5909 5911 5911 5911 5912 5912
5896 5893 5893 5893 5893 5892 5890 5890 5890 5890 5890 5889 5889 5887 5887 5885 5884 5883 5883 5882 5882 5883 5883 5884 5885 5886 5888 5889 5889 5891 5893 5895 5897 5899 5901 5903 5904 5905 5907 5907 5908 5909 5910
5894 5892 5891 5890 5889 5889 5890 5887 5887 5888 5887 5887 5886 5885 5884 5882 5879 5877 5877 5876 5876 5877 5878 5879 5880 5882 5883 5885 5886 5887 5889 5892 5894 5894 5896 5898 5900 5900 5903 5905 5905 5906 5907
5890 5889 5887 5883 5884 5885 5886 5885 5884 5885 5885 5885 5884 5882 5879 5876 5873 5871 5870 5870 5870 5870 5870 5872 5875 5876 5877 5878 5880 5882 5884 5886 5888 5891 5892 5893 5894 5897 5899 5901 5902 5902 5903
5888 5885 5880 5879 5878 5881 5885 5885 5884 5883 5883 5882 5880 5877 5874 5870 5867 5865 5864 5864 5864 5864 5864 5864 5867 5869 5871 5872 5875 5877 5879 5882 5883 5885 5886 5888 5891 5893 5895 5896 5898 5898 5900
5886 5883 5877 5876 5879 5882 5883 5883 5883 5881 5880 5879 5877 5873 5869 5867 5865 5862 5860 5859 5858 5857 5857 5858 5859 5861 5863 5866 5868 5872 5874 5875 5877 5879 5879 5882 5885 5888 5890 5892 5893 5895 5896
5885 5884 5881 5880 5880 5880 5882 5881 5880 5879 5878 5877 5875 5871 5865 5862 5860 5858 5856 5854 5852 5851 5851 5852 5853 5853 5854 5859 5862 5866 5869 5871 5873 5874 5874 5876 5878 5882 5886 5888 5889 5890 5891
5883 5884 5883 5882 5879 5879 5880 5879 5877 5877 5877 5875 5872 5868 5863 5859 5856 5854 5853 5851 5848 5846 5846 5846 5847 5847 5848 5852 5856 5859 5863 5866 5869 5870 5870 5871 5875 5878 5881 5883 5885 5886 5887
5881 5881 5880 5879 5878 5878 5878 5877 5877 5877 5876 5874 5870 5866 5861 5856 5853 5851 5850 5847 5845 5842 5841 5841 5842 5843 5845 5847 5850 5854 5858 5861 5863 5866 5867 5868 5871 5873 5875 5877 5879 5880 5880